Telfer, Australia

3:57 PM AWST on January 16, 2018 (GMT +0800)
Telfer

Weather History for YTEF - November, 2013

Change the Weather History Date:

Friday, November 29, 2013

  Actual Average Record
Temperature  
Mean Temperature 84 °F -  
Max Temperature 99 °F - - ()
Min Temperature 70 °F - - ()
Cooling Degree Days 20    
Growing Degree Days 34 (Base 50)    
Moisture  
Dew Point 59 °F    
Average Humidity 42    
Maximum Humidity 78    
Minimum Humidity 16    
Precipitation  
Precipitation 0.00 in - - ()
Sea Level Pressure  
Sea Level Pressure 29.72 in    
Wind  
Wind Speed 12 mph ()    
Max Wind Speed 15 mph    
Max Gust Speed 24 mph    
T = Trace of Precipitation, MM = Missing Value Source: Averaged Metar Reports

Daily Weather History Graph

Daily Weather History Graph

Search for Another Location

Airport or City:

Trip Planner

Search our weather history database for the weather conditions in past years. The results will help you decide how hot, cold, wet, or windy it might be!

Date:

Astronomy

Nov. 29, 2013 Rise Set
Actual Time 4:59 AM AWST 6:19 PM AWST
Civil Twilight 4:34 AM AWST 6:44 PM AWST
Nautical Twilight 4:05 AM AWST 7:13 PM AWST
Astronomical Twilight 3:35 AM AWST 7:43 PM AWST
Moon 1:46 AM AWST (11/29) 2:34 PM AWST (11/29)
Length of Visible Light 14h 09m
Length of Day
13h 20m
Waning Crescent, 18% of the Moon is Illuminated
Nov 29
Waning Crescent
Dec 3
New
Dec 9
First Quarter
Dec 17
Full
Dec 25
Last Quarter

Hourly Weather History & Observations

Time (AWST) Temp. Heat Index Dew Point Humidity Pressure Visibility Wind Dir Wind Speed Gust Speed Precip Events Conditions
12:00 AM 78 °F - 62 °F 49% 29.67 in - NW 13.8 mph - -  
12:00 AM 77.0 °F - 62.6 °F 61% 29.71 in - NW 13.8 mph - N/A   Unknown
1:00 AM 75.2 °F - 62.6 °F 65% 29.71 in - NW 12.7 mph - N/A   Unknown
2:00 AM 74 °F - 62 °F 58% 29.65 in - NW 13.8 mph - -  
2:00 AM 73.4 °F - 62.6 °F 69% 29.71 in - NW 13.8 mph - N/A   Unknown
3:00 AM 73 °F - 62 °F 60% 29.68 in - NW 12.7 mph - -  
3:00 AM 73.4 °F - 62.6 °F 69% 29.74 in - NW 12.7 mph - N/A   Unknown
4:00 AM 71.6 °F - 62.6 °F 73% 29.74 in - NW 11.5 mph - N/A   Unknown
5:00 AM 71 °F - 64 °F 71% 29.70 in - NW 10.4 mph - -  
5:00 AM 71.6 °F - 64.4 °F 78% 29.77 in - NW 10.4 mph - N/A   Unknown
6:00 AM 72 °F - 64 °F 71% 29.73 in - WNW 15.0 mph - -  
6:00 AM 71.6 °F - 64.4 °F 78% 29.77 in - WNW 15.0 mph - N/A   Unknown
7:00 AM 75.2 °F - 62.6 °F 65% 29.83 in - WNW 10.4 mph - N/A   Unknown
8:00 AM 79 °F - 61 °F 44% 29.77 in - NW 10.4 mph - -  
8:00 AM 78.8 °F - 60.8 °F 54% 29.83 in - NW 10.4 mph - N/A   Unknown
9:00 AM 82 °F - 60 °F 38% 29.76 in - NW 13.8 mph - -  
9:00 AM 82.4 °F 82.9 °F 60.8 °F 48% 29.80 in - NW 13.8 mph - N/A   Unknown
10:00 AM 84.2 °F 83.8 °F 59.0 °F 42% 29.80 in - NW 13.8 mph - N/A   Unknown
11:00 AM 89 °F - 58 °F 25% 29.71 in - NW 12.7 mph - -  
11:00 AM 89.6 °F 88.1 °F 57.2 °F 33% 29.77 in - NW 12.7 mph - N/A   Unknown
12:00 PM 93 °F - 55 °F 18% 29.69 in - NW 12.7 mph - -  
12:00 PM 93.2 °F 91.3 °F 55.4 °F 28% 29.74 in - NW 12.7 mph - N/A   Unknown
1:00 PM 95.0 °F 93.0 °F 55.4 °F 26% 29.71 in - North 12.7 mph 24.2 mph N/A   Unknown
2:00 PM 94 °F - 54 °F 17% 29.63 in - NNW 12.7 mph - -  
2:00 PM 95.0 °F 92.7 °F 53.6 °F 25% 29.68 in - NNW 12.7 mph - N/A   Unknown
3:00 PM 97 °F - 56 °F 16% 29.62 in - NW 15.0 mph - -  
3:00 PM 96.8 °F 95.1 °F 55.4 °F 25% 29.68 in - NW 15.0 mph - N/A   Unknown
4:00 PM 96.8 °F 94.4 °F 53.6 °F 23% 29.65 in - NNW 13.8 mph - N/A   Unknown
5:00 PM 96 °F - 54 °F 16% 29.62 in - NNW 12.7 mph - -  
5:00 PM 95.0 °F 92.7 °F 53.6 °F 25% 29.68 in - NNW 12.7 mph - N/A   Unknown
6:00 PM 94 °F - 55 °F 18% 29.63 in - NW 13.8 mph - -  
6:00 PM 95.0 °F 93.0 °F 55.4 °F 26% 29.68 in - NW 13.8 mph - N/A   Unknown
7:00 PM 91.4 °F 89.1 °F 53.6 °F 28% 29.71 in - NNW 9.2 mph - N/A   Unknown
8:00 PM 89 °F - 55 °F 21% 29.68 in - NNW 10.4 mph - -  
8:00 PM 89.6 °F 87.7 °F 55.4 °F 31% 29.74 in - NNW 10.4 mph - N/A   Unknown
9:00 PM 86 °F - 55 °F 24% 29.69 in - NNW 12.7 mph - -  
9:00 PM 86.0 °F 84.5 °F 55.4 °F 35% 29.74 in - NNW 12.7 mph - N/A   Unknown
10:00 PM 84.2 °F 83.5 °F 57.2 °F 40% 29.77 in - NNW 12.7 mph - N/A   Unknown
11:00 PM 81 °F - 58 °F 36% 29.70 in - NW 11.5 mph - -  
11:00 PM 80.6 °F 81.1 °F 59.0 °F 48% 29.74 in - NW 11.5 mph - N/A   Unknown